Location: Fort Worth, Tx
(32.7431°N, 97.3695°W)
Time: 09:38:37
(UTC-04:00)

ITAMSAT 1 - Visible Passes

Search period start: 21 March 2023 00:00
Search period end: 31 March 2023 00:00
Orbit: 784 x 795 km, 98.8° (Epoch: 20 March)

Date Brightness Start Highest point End Pass type
(mag) Time Alt. Az. Time Alt. Az. Time Alt. Az.
21 Mar 8.0 21:43:51 10° SE 21:48:44 44° ENE 21:53:39 10° N visible
21 Mar 10.1 23:24:57 10° SW 23:28:18 17° W 23:31:41 10° NW visible
22 Mar 8.8 21:15:20 10° ESE 21:19:19 23° ENE 21:23:18 10° NNE visible
22 Mar 9.1 22:54:25 13° SSW 22:58:28 35° W 23:03:13 10° NNW visible
23 Mar 7.8 22:24:22 14° S 22:28:46 72° WSW 22:33:59 10° NNW visible
24 Mar 7.7 21:54:18 11° SSE 21:59:11 56° ENE 22:04:17 10° N visible
24 Mar 10.4 23:36:26 10° WSW 23:38:53 13° W 23:41:23 10° WNW visible
25 Mar 8.6 21:25:21 10° SE 21:29:43 28° ENE 21:34:07 10° NNE visible
25 Mar 9.5 23:04:58 11° SSW 23:09:01 28° W 23:13:27 10° NW visible
26 Mar 8.2 22:34:54 14° S 22:39:17 56° W 22:44:25 10° NNW visible
27 Mar 7.6 22:04:51 12° SSE 22:09:39 72° ENE 22:14:51 10° N visible
27 Mar 10.6 23:49:20 10° W 23:49:30 10° W 23:49:39 10° W visible
28 Mar 8.3 21:35:27 10° SE 21:40:08 36° ENE 21:44:51 10° N visible
28 Mar 9.8 23:15:38 10° SW 23:19:35 22° W 23:23:33 10° NW visible
29 Mar 9.1 21:07:16 10° ESE 21:10:45 19° ENE 21:14:16 10° NNE visible
29 Mar 8.7 22:45:26 13° S 22:49:48 44° W 22:54:46 10° NNW visible
30 Mar 7.6 22:15:23 13° SSE 22:20:07 90° SW 22:25:22 10° NNW visible
